Date,TemperatureHighF,TemperatureAvgF,TemperatureLowF,DewpointHighF,DewpointAvgF,DewpointLowF,HumidityHigh,HumidityAvg,HumidityLow,PressureMaxIn,PressureMinIn,WindSpeedMaxMPH,WindSpeedAvgMPH,GustSpeedMaxMPH,PrecipitationSumIn
2012-8-13,88.9,71.8,62.1,64.9,60.7,54.8,93,72,34,30.04,29.93,11,2,11,0.00
2012-8-14,83.5,70.7,61.5,70.4,64.2,60.6,98,81,54,29.93,29.86,10,2,12,0.17
2012-8-15,92.5,72.2,61.0,67.9,61.9,57.8,99,74,36,30.00,29.92,6,1,8,0.00
2012-8-16,90.1,75.3,57.9,68.7,61.2,57.7,99,66,36,30.04,29.84,15,4,18,0.00
2012-8-17,87.1,73.8,58.8,65.0,60.3,54.9,89,64,36,29.96,29.86,9,2,14,0.00
2012-8-18,90.9,68.2,51.6,61.1,54.7,49.7,99,68,26,30.00,29.90,7,1,7,0.00
2012-8-19,90.3,70.7,57.4,60.8,56.0,53.6,92,64,31,29.94,29.83,8,2,11,0.00
2012-8-20,90.5,68.3,50.7,63.5,53.7,47.6,99,66,27,29.99,29.89,8,1,9,0.00
2012-8-21,90.7,68.1,54.1,63.3,55.9,53.2,98,70,31,30.11,29.99,11,2,11,0.01
2012-8-22,92.1,69.7,52.0,64.1,55.9,51.4,99,68,31,30.17,30.07,6,1,8,0.00
2012-8-23,92.7,71.5,54.1,63.2,57.1,52.2,98,67,27,30.17,30.08,7,2,8,0.00
2012-8-24,94.6,75.0,55.8,64.6,58.7,54.8,97,63,29,30.15,30.05,8,2,11,0.00
2012-8-25,95.5,76.0,60.4,67.3,60.6,57.2,94,64,33,30.16,30.08,10,2,14,0.00
2012-8-26,94.5,77.0,62.1,63.6,59.8,55.6,84,58,31,30.19,30.04,9,2,12,0.00
2012-8-27,87.6,74.5,63.9,74.7,66.2,59.3,95,76,52,30.07,29.95,11,3,15,0.22
2012-8-28,90.7,74.0,62.1,72.0,63.9,57.6,99,74,41,30.07,30.00,9,2,12,0.00
2012-8-29,86.4,69.7,54.5,65.4,57.3,53.7,99,69,35,30.11,30.02,6,1,9,0.00
2012-8-30,92.5,72.3,53.8,61.3,55.3,48.2,97,62,23,30.14,30.05,8,2,10,0.00
2012-8-31,97.9,75.4,56.7,72.2,65.0,54.3,96,73,39,30.17,30.06,17,3,17,0.05
2012-9-1,85.5,77.2,73.0,76.3,72.9,70.8,96,87,71,30.14,30.02,10,2,12,0.00
2012-9-2,82.9,76.6,71.6,74.3,72.1,70.1,95,86,74,30.05,29.90,10,3,10,0.00
2012-9-3,82.0,75.7,70.2,73.3,71.3,68.7,96,86,72,29.95,29.89,17,3,17,0.00
2012-9-4,83.3,76.1,64.8,75.9,72.4,60.8,95,88,74,30.11,29.83,8,2,11,0.01
2012-9-5,88.7,75.5,65.7,70.6,68.5,65.4,99,81,52,29.99,29.88,7,1,8,0.00
2012-9-6,92.5,78.1,64.0,70.5,66.9,62.9,98,72,41,30.02,29.94,11,2,15,0.00
2012-9-7,90.5,76.5,65.3,72.6,67.1,63.5,97,75,41,30.02,29.75,10,2,13,0.00
2012-9-8,79.7,66.9,55.9,67.8,58.7,49.2,94,77,43,29.97,29.67,11,4,19,0.67
2012-9-9,76.5,62.0,49.5,57.9,53.5,49.2,99,77,46,30.14,29.95,6,1,8,0.00
2012-9-10,78.1,61.6,46.9,58.0,50.3,46.7,99,72,36,30.29,30.14,8,1,8,0.00
2012-9-11,81.3,62.8,46.2,56.9,50.7,45.4,99,70,34,30.35,30.26,8,2,11,0.00
2012-9-12,88.0,67.7,48.6,61.0,55.2,47.9,99,69,36,30.37,30.27,9,2,10,0.00
2012-9-13,87.6,70.5,56.3,65.2,59.0,55.4,97,71,39,30.38,30.26,8,2,11,0.00
2012-9-14,82.8,63.3,48.7,64.4,57.2,47.7,98,82,49,30.36,30.26,13,2,16,0.00
2012-9-15,77.5,58.0,43.9,55.6,47.2,42.2,99,73,33,30.38,30.24,6,1,9,0.00
2012-9-16,79.9,62.0,47.8,53.4,48.1,43.0,96,66,29,30.25,30.11,9,2,9,0.00
2012-9-17,80.4,64.8,50.0,63.3,53.9,46.0,91,70,41,30.13,29.89,10,2,11,0.08
2012-9-18,70.0,64.0,53.4,65.6,57.0,41.7,98,79,52,30.06,29.69,13,4,17,0.15
2012-9-19,70.5,54.0,37.2,46.7,39.8,35.7,99,64,29,30.23,30.06,8,2,10,0.00
2012-9-20,80.2,60.0,40.1,56.5,46.2,38.8,98,66,29,30.16,29.99,12,3,14,0.00
2012-9-21,74.3,64.5,54.0,56.8,50.4,38.5,90,64,28,30.07,29.79,12,3,14,0.01
2012-9-22,73.9,59.3,42.1,57.9,47.8,29.9,97,70,32,30.19,29.81,25,6,30,5.49
2012-9-23,68.2,49.8,35.1,46.7,38.3,33.8,99,69,34,30.29,30.19,11,2,11,0.00
2012-9-24,70.2,51.3,33.1,45.6,36.0,30.6,99,63,24,30.34,30.12,14,3,18,0.00
2012-9-25,69.4,55.2,41.0,57.0,47.8,36.8,93,78,48,30.14,30.03,11,3,14,0.07
2012-9-26,77.9,65.8,58.8,65.7,61.0,56.4,97,85,59,30.18,30.03,13,4,16,0.00
2012-9-27,70.2,63.1,55.6,65.9,61.5,54.2,98,94,85,30.22,30.14,8,2,9,0.14
2012-9-28,70.7,58.4,50.0,55.7,52.6,49.7,99,83,52,30.22,30.11,8,2,10,0.00
2012-9-29,73.8,57.9,43.2,53.7,49.1,42.6,99,76,43,30.15,30.00,11,1,11,0.00
2012-9-30,75.2,56.1,41.5,53.0,45.8,40.1,99,73,33,30.00,29.91,8,2,11,0.00
2012-10-1,67.3,56.4,46.8,53.2,48.8,43.9,94,77,54,29.99,29.81,12,3,14,0.01
2012-10-2,83.5,66.1,54.9,68.9,61.5,52.8,96,86,60,29.96,29.78,12,3,13,0.00
2012-10-3,73.2,63.8,54.7,62.7,57.1,52.7,99,81,52,30.21,29.95,14,3,17,0.00
2012-10-4,80.2,63.8,47.7,59.6,53.6,47.4,99,73,41,30.27,30.19,11,3,16,0.00
2012-10-5,78.4,65.9,48.6,60.8,55.6,45.3,89,71,48,30.20,30.00,11,4,14,0.01
2012-10-6,61.2,50.6,41.2,46.0,39.1,30.6,96,69,34,30.18,30.02,11,4,13,0.00
2012-10-7,51.6,46.5,42.1,41.0,37.4,35.5,84,71,60,30.24,30.13,8,2,12,0.00
2012-10-8,56.1,44.0,34.7,41.1,36.6,31.5,99,77,49,30.32,30.21,7,1,10,0.00
2012-10-9,63.9,45.0,30.2,44.9,35.8,28.7,99,74,37,30.26,30.04,9,2,14,0.00
2012-10-10,72.1,56.1,39.4,65.5,53.0,36.4,96,89,64,30.04,29.49,8,2,8,0.01
2012-10-11,83.5,64.8,36.5,68.7,57.4,26.5,98,79,26,29.95,29.51,10,2,10,0.01
2012-10-12,63.1,47.3,36.7,41.5,33.6,25.9,89,64,25,30.14,29.94,8,1,11,0.00
2012-10-13,72.9,55.1,33.4,55.2,41.2,26.7,81,61,41,30.13,29.81,11,4,14,0.00
2012-10-14,79.7,69.2,63.3,59.9,57.5,54.8,77,67,47,29.81,29.48,27,9,27,0.70
2012-10-15,68.4,54.9,51.1,59.8,47.6,42.7,92,77,67,29.72,29.49,17,6,19,0.00
2012-10-16,65.3,48.3,32.4,43.8,38.3,30.6,98,71,40,29.78,29.60,8,2,10,0.00
2012-10-17,78.1,61.6,45.1,51.8,46.5,39.7,82,60,33,29.63,29.42,13,4,14,0.00
2012-10-18,66.4,58.1,42.3,52.6,41.2,26.6,86,56,25,29.53,29.31,21,6,21,0.04
2012-10-19,65.1,54.7,46.6,62.4,51.0,38.6,96,88,46,29.77,29.40,11,3,13,0.00
2012-10-20,83.5,66.1,41.5,68.7,60.8,38.3,98,84,59,29.98,29.73,10,2,10,0.77
2012-10-21,64.9,47.0,31.8,48.3,39.8,30.7,99,79,44,30.14,29.96,8,1,11,0.00
2012-10-22,79.9,59.7,39.7,55.7,48.5,39.0,99,70,41,30.14,30.02,11,2,14,0.00
2012-10-23,79.9,68.2,56.3,54.8,51.0,46.9,85,56,36,30.06,29.98,16,3,16,0.01
2012-10-24,81.9,67.4,53.2,58.2,53.8,48.9,97,65,38,30.11,30.02,12,3,14,0.01
2012-10-25,82.8,64.3,48.2,56.4,50.9,46.9,97,67,37,30.07,29.95,9,2,12,0.00
2012-10-26,63.5,53.5,48.7,55.9,48.6,46.0,95,84,66,30.10,29.96,17,3,17,0.01
2012-10-27,51.1,48.5,46.8,47.9,45.6,42.7,98,90,77,30.07,29.97,13,4,13,0.00
2012-10-28,47.3,44.5,38.7,44.0,41.0,37.6,96,88,76,30.05,29.92,13,6,15,0.00
2012-10-29,40.8,38.8,36.7,39.5,37.4,33.4,97,95,87,29.95,29.53,27,9,27,0.32
2012-10-30,39.0,36.7,33.1,38.2,34.6,31.1,97,92,84,29.52,29.33,26,11,27,0.33
2012-10-31,42.3,39.5,37.0,39.8,37.7,34.9,99,94,84,29.72,29.52,14,6,14,0.17
2012-11-1,52.2,43.5,39.2,39.8,36.1,31.1,99,77,51,29.79,29.72,14,5,17,0.05
2012-11-2,49.1,43.0,34.0,33.2,30.4,25.6,73,61,50,30.05,29.78,11,4,13,0.00
2012-11-3,50.9,43.1,39.7,34.4,31.7,30.4,74,64,52,30.15,30.04,6,2,8,0.00
2012-11-4,48.4,39.6,27.3,36.5,30.5,22.6,88,70,54,30.13,30.08,8,1,8,0.00
2012-11-5,51.6,37.2,25.0,33.6,27.4,20.8,91,69,45,30.15,30.07,6,1,8,0.00
2012-11-6,52.9,37.2,25.5,33.9,26.6,19.7,84,67,44,30.09,29.91,9,2,9,0.00
2012-11-7,44.6,36.8,29.3,29.6,27.2,23.8,80,68,53,30.06,29.99,4,1,5,0.00
2012-11-8,53.4,35.7,23.0,37.2,27.5,19.5,91,74,46,30.20,30.06,10,1,10,0.00
2012-11-9,59.9,40.3,25.2,41.9,31.4,21.9,93,73,48,30.24,30.12,10,2,11,0.00
2012-11-10,59.7,49.4,41.5,42.1,38.7,36.8,84,68,49,30.17,30.15,2,0,2,0.02
2012-11-11,70.3,58.5,40.3,42.3,37.5,34.1,86,48,29,30.27,30.09,15,4,17,0.00
2012-11-12,63.9,50.5,32.0,55.4,42.5,28.0,96,77,36,30.35,29.99,21,7,24,0.64
2012-11-13,45.0,32.7,23.0,32.0,24.8,20.4,96,74,48,30.48,30.35,8,1,8,0.00
2012-11-14,45.1,32.2,20.1,31.3,24.6,17.2,91,74,54,30.51,30.32,9,2,12,0.00
2012-11-15,53.1,35.0,21.2,33.9,26.0,18.0,90,72,43,30.34,30.26,8,1,8,0.00
2012-11-16,55.4,36.2,23.2,39.8,28.6,19.9,93,75,48,30.45,30.30,9,1,11,0.00
2012-11-17,61.5,39.6,23.0,38.3,27.9,19.7,91,67,32,30.53,30.43,9,2,12,0.00
2012-11-18,62.4,41.7,27.9,35.0,27.2,21.3,83,60,27,30.46,30.36,8,1,9,0.00
2012-11-19,59.7,39.6,25.9,40.8,31.0,21.7,91,73,47,30.37,30.17,5,1,8,0.00
2012-11-20,59.0,44.7,33.4,42.2,37.0,30.2,94,76,53,30.17,30.06,5,1,6,0.00
2012-11-21,65.8,46.5,32.5,44.5,37.5,30.8,98,74,41,30.22,30.10,5,1,6,0.00
2012-11-22,65.5,46.6,28.6,45.6,36.3,27.9,99,71,40,30.19,29.97,11,2,12,0.00
2012-11-23,55.9,45.2,31.6,48.1,32.5,17.7,85,61,50,30.09,29.86,21,10,23,0.02
2012-11-24,33.3,31.3,29.8,24.6,20.8,17.9,78,65,55,30.13,30.06,14,6,17,0.00
2012-11-25,46.8,34.6,28.6,26.6,22.4,18.7,75,61,43,30.07,29.85,14,4,18,0.00
2012-11-26,52.5,39.2,25.7,34.1,27.9,21.6,89,66,40,30.18,29.99,8,1,10,0.00
2012-11-27,43.3,34.6,21.0,30.6,25.7,15.8,85,70,56,30.29,30.17,8,2,10,0.00
2012-11-28,44.6,27.9,17.2,28.5,18.4,12.7,87,69,41,30.34,30.25,11,2,13,0.00
2012-11-29,50.0,31.4,18.3,31.6,20.3,12.5,87,66,36,30.36,30.22,10,2,12,0.00
2012-11-30,59.7,42.5,28.0,36.4,30.7,21.7,85,65,38,30.23,30.13,14,3,15,0.00
2012-12-1,63.0,45.3,30.0,46.6,38.7,28.7,99,79,54,30.25,30.14,10,2,14,0.00
2012-12-2,58.3,55.6,52.7,56.2,51.2,45.0,99,86,66,30.15,30.03,12,5,17,0.31
2012-12-3,63.7,58.4,56.1,59.2,57.1,55.9,99,96,81,30.15,30.10,11,2,11,0.02
2012-12-4,47.5,43.9,40.1,45.0,42.4,39.6,99,95,90,29.92,29.92,7,2,9,0.49
2012-12-5,46.0,36.5,25.9,40.8,31.0,20.0,99,81,57,29.92,29.92,8,2,11,0.00
2012-12-6,48.7,36.6,26.8,39.1,28.3,19.6,89,72,57,29.92,29.92,12,1,12,0.04
2012-12-7,51.3,48.0,42.1,50.6,47.2,39.6,99,97,91,29.92,29.92,4,1,5,0.58
2012-12-8,54.7,51.4,43.2,53.6,49.7,41.0,99,94,85,29.92,29.92,11,3,14,0.06
2012-12-9,59.0,47.5,40.5,57.4,45.1,37.2,96,91,86,29.92,29.92,10,5,13,0.24
2012-12-10,38.5,35.0,34.2,35.0,30.8,29.9,87,85,80,29.92,29.92,9,4,10,0.22
2012-12-11,36.5,32.7,23.0,30.6,26.9,18.9,87,79,64,29.92,29.92,11,3,11,0.01
2012-12-12,46.0,28.9,18.3,30.6,21.4,13.8,87,75,51,29.92,29.92,5,1,5,0.00
2012-12-13,49.8,29.8,18.0,30.3,20.8,12.9,85,71,36,29.92,29.92,6,1,8,0.00
2012-12-14,52.3,33.9,21.4,33.4,24.7,17.3,88,71,44,29.92,29.92,8,1,9,0.00
2012-12-15,51.1,42.0,30.6,38.5,31.9,24.8,81,68,55,29.92,29.92,10,3,11,0.00
2012-12-16,60.8,56.2,49.8,52.7,48.1,38.3,87,74,62,29.92,29.92,14,6,14,0.00
2012-12-17,55.6,47.3,43.7,51.5,45.2,42.5,96,92,82,29.92,29.92,12,2,14,0.38
2012-12-18,45.5,40.6,38.1,43.2,35.5,30.9,96,83,60,29.92,29.92,13,5,15,0.00
2012-12-19,46.6,41.8,35.4,38.4,36.0,30.1,89,80,68,29.92,29.92,8,3,14,0.00
2012-12-20,50.4,43.2,35.1,45.9,37.3,25.2,90,80,63,29.92,29.92,27,10,40,1.83
2012-12-21,34.9,31.7,29.5,28.7,25.8,23.3,88,79,64,29.92,29.92,31,13,32,1.83
2012-12-22,32.2,28.7,20.3,25.5,21.2,14.6,79,73,64,29.92,29.92,14,6,17,0.00
2012-12-23,45.1,28.4,16.3,29.2,20.0,10.5,83,71,51,29.92,29.92,11,1,11,0.00
2012-12-24,34.7,31.4,26.6,32.4,26.4,20.0,91,81,73,29.92,29.92,11,3,11,0.05
2012-12-25,36.3,33.8,32.9,31.1,27.7,24.7,89,78,69,29.92,29.92,11,3,11,0.00
2012-12-26,34.0,32.3,28.2,30.2,27.6,23.2,88,83,70,29.92,29.92,17,3,17,0.05
2012-12-27,30.9,28.2,26.6,24.4,22.2,20.7,81,78,75,29.92,29.92,0,0,0,0.00
2012-12-28,39.0,29.0,23.0,30.4,23.2,18.4,86,79,63,29.92,29.92,7,2,10,0.22
2012-12-29,34.2,29.6,26.6,29.0,25.0,20.4,88,83,75,29.92,29.92,10,3,15,0.02
2012-12-30,29.1,24.4,16.3,20.6,16.6,8.5,79,72,60,29.92,29.92,11,4,13,0.00
2012-12-31,34.0,28.8,16.2,29.0,22.4,9.1,88,77,63,29.92,29.92,11,4,16,0.00
2013-1-1,34.7,28.5,16.0,29.7,22.1,8.2,90,77,61,29.92,29.92,6,1,8,0.05